Theta_e
348 349 348 348 348 348 348 348 347 347 348 348 348 351 348 348 347 346 344 344 347 344 343 349 352 348 348 350 344 341 342 343 339 335 339 338 339 337 337 339 339 339 336
347 348 348 348 348 348 349 348 347 348 350 348 349 348 350 348 348 345 345 344 346 349 346 346 353 352 351 346 341 345 347 342 337 340 338 338 337 336 337 336 336 337 335
348 348 348 348 347 349 348 348 348 349 349 349 351 350 349 348 348 345 344 345 346 348 349 351 349 352 351 351 347 335 344 341 337 342 344 341 337 337 337 335 335 335 335
349 348 349 348 347 348 348 348 349 349 350 349 351 351 349 349 347 345 345 346 347 346 352 352 348 351 346 351 348 340 345 346 336 335 342 343 343 337 337 338 338 336 336
350 350 348 348 348 347 351 349 349 350 352 349 354 351 351 349 345 346 346 346 347 351 349 354 348 344 348 354 350 348 343 340 343 337 337 338 338 340 339 338 339 338 338
350 351 350 348 347 348 352 353 351 352 351 351 348 354 351 349 347 346 347 346 349 353 352 354 353 348 344 353 352 347 342 344 341 341 341 339 337 339 338 340 338 338 338
350 352 352 349 348 349 351 353 354 352 351 349 346 347 354 351 349 347 346 348 350 351 352 349 354 352 347 347 352 346 348 335 341 340 341 341 340 340 339 338 339 339 339
348 352 353 351 349 348 350 352 352 351 349 347 346 342 349 352 345 347 348 347 350 352 351 351 349 346 344 348 352 345 352 347 333 328 341 340 341 340 340 338 338 338 338
346 350 352 352 350 349 349 351 352 351 350 346 347 343 343 344 340 347 348 351 349 351 350 349 350 350 349 345 348 349 346 351 345 327 324 336 341 341 341 339 339 338 338
344 349 352 353 352 350 349 350 352 351 347 346 340 337 334 336 338 342 349 350 354 349 352 350 349 350 351 350 350 347 346 352 349 341 327 324 330 339 340 339 338 337 336
343 347 352 352 354 352 351 351 352 353 352 347 337 335 336 334 333 338 345 350 353 357 349 356 352 350 350 347 350 349 348 348 350 345 334 329 327 328 338 339 338 338 337
344 346 350 352 354 355 353 353 353 354 354 351 349 342 338 334 334 337 340 346 351 351 357 351 357 353 352 345 346 345 343 352 351 349 342 334 330 329 330 338 338 338 338
339 345 349 351 353 354 355 355 354 355 358 359 355 351 341 338 337 338 340 343 345 348 349 353 352 354 352 350 344 341 339 340 352 351 349 341 338 332 327 327 335 338 338
337 344 348 350 352 354 355 355 356 356 356 359 360 357 353 346 340 340 340 340 342 343 345 347 350 353 352 350 349 347 344 342 344 355 352 345 341 337 334 330 325 330 337
342 344 346 351 350 351 353 355 356 357 357 357 359 359 357 355 352 352 347 345 342 340 341 343 347 352 354 350 349 349 349 347 340 340 353 351 342 340 336 337 332 325 329
338 339 340 341 346 351 352 352 355 356 357 357 357 359 358 358 359 357 356 354 351 347 346 345 343 345 347 345 344 345 350 351 349 345 341 345 345 344 340 338 338 333 334
333 334 333 334 337 341 352 355 354 355 357 356 357 358 359 358 359 359 359 359 355 353 350 347 342 339 340 341 342 343 346 349 351 349 347 346 345 348 347 348 345 345 340
332 332 332 333 334 336 343 350 354 355 354 356 357 358 359 359 359 359 359 359 359 356 353 353 347 342 336 337 340 342 344 346 347 348 347 347 347 349 347 346 349 345 344
332 332 332 332 333 339 341 343 345 350 354 354 354 355 358 359 360 360 359 361 361 360 357 354 353 345 342 340 339 341 345 349 348 349 350 350 349 348 349 351 349 348 342
345 343 341 338 332 335 335 345 344 348 347 344 344 352 356 356 359 360 362 362 361 360 361 358 355 353 347 345 345 349 353 350 349 353 353 352 351 350 349 353 353 352 349
344 344 342 341 340 337 337 337 344 347 345 343 347 347 348 351 357 360 364 365 364 365 364 363 362 357 349 347 349 350 356 352 350 350 354 353 351 350 354 354 352 350 347
346 345 343 341 343 346 336 336 338 336 339 344 349 351 351 354 357 362 363 366 365 365 363 363 362 356 352 354 356 357 359 359 362 359 357 357 356 355 355 356 356 353 353
347 347 343 338 337 349 346 338 340 342 343 344 348 351 354 357 359 362 364 365 364 363 363 363 363 363 362 364 364 363 363 362 362 362 360 359 358 357 357 356 356 356 357
349 356 355 353 351 346 349 351 343 345 353 352 355 354 356 358 360 358 364 363 364 363 364 366 366 364 365 366 365 364 365 365 364 362 360 360 358 357 357 357 357 357 356
352 352 355 358 358 360 362 362 361 359 353 350 358 360 360 362 363 363 361 366 363 364 365 365 363 362 364 365 362 363 364 362 361 363 362 361 360 357 356 356 357 357 356
351 351 352 355 356 355 356 359 361 361 362 360 361 361 362 362 362 365 362 360 363 364 362 362 362 362 362 361 361 361 361 360 361 362 362 361 361 359 357 356 355 354 355
Wind_Speed
33 34 32 32 31 33 34 35 33 30 29 25 24 22 18 17 15 14 13 14 15 13 11 6 3 3 3 4 4 4 6 4 2 9 9 3 4 6 1 9 10 4 8
36 37 36 36 36 37 36 36 37 34 31 30 25 22 20 18 17 16 16 19 18 14 11 9 5 6 7 6 2 6 5 3 12 6 9 9 9 4 6 9 7 5 8
36 37 40 40 39 38 41 39 38 38 36 32 27 22 21 19 20 18 19 20 20 16 14 12 9 9 7 6 2 7 8 5 6 4 3 4 8 12 4 7 10 6 5
36 39 38 38 40 40 41 41 38 39 39 36 29 29 30 27 23 21 20 19 16 18 15 12 11 12 9 9 3 6 9 4 3 9 3 3 4 7 8 6 8 5 5
39 41 42 42 41 40 41 43 40 38 39 38 31 29 28 27 23 21 19 21 19 16 16 17 14 13 14 11 7 8 9 8 8 3 4 5 3 4 5 9 10 5 8
39 41 42 40 40 39 40 40 40 39 39 36 39 31 32 28 26 25 23 22 22 21 17 20 16 14 17 12 11 11 8 11 12 11 7 5 7 5 8 8 15 13 11
39 40 44 43 44 41 43 42 42 42 39 42 38 40 33 31 29 26 25 24 24 24 20 19 22 20 16 17 14 11 9 12 15 16 14 10 7 5 5 5 3 10 10
37 43 46 45 46 44 45 46 46 44 41 42 42 38 40 36 33 31 27 28 25 23 23 22 21 18 18 20 18 18 13 13 14 15 16 14 10 8 7 6 4 5 9
38 43 44 45 47 46 46 48 48 46 42 41 43 40 41 41 36 35 32 26 27 23 24 23 24 22 20 22 23 21 18 14 15 15 16 16 14 10 9 9 9 9 8
36 39 44 44 46 49 48 48 48 49 43 42 43 45 44 44 42 35 34 34 26 28 21 27 26 24 21 25 23 25 23 20 22 19 18 19 18 15 14 13 12 11 10
37 37 44 45 47 47 45 49 48 48 47 43 44 46 46 44 44 43 37 36 33 26 28 21 28 27 24 25 29 28 24 24 25 25 23 22 19 19 17 17 16 14 12
35 37 41 43 43 44 46 48 48 47 50 47 43 46 46 46 44 44 45 40 38 36 33 32 28 32 28 26 30 33 31 28 30 29 28 27 24 21 21 20 18 17 16
26 35 39 40 42 45 46 45 48 48 43 44 44 45 48 48 47 46 45 46 43 41 38 38 39 37 35 31 29 32 33 34 34 34 30 29 29 25 23 26 26 22 21
24 31 35 39 38 42 45 44 43 45 44 41 42 44 46 49 48 47 47 46 47 46 45 44 44 43 41 39 35 32 33 33 35 34 36 33 32 31 27 27 28 28 23
12 22 29 37 41 41 44 44 43 43 43 44 44 45 44 46 47 47 48 48 48 49 48 47 45 44 43 43 40 38 38 38 37 38 37 39 38 36 32 29 29 29 31
8 5 9 6 11 36 39 46 46 43 44 45 48 46 44 44 47 47 48 49 50 49 48 48 47 47 48 46 43 41 40 41 41 41 40 43 44 42 39 35 31 31 31
1 2 4 9 12 15 26 34 42 41 41 46 47 47 47 47 47 48 48 49 50 50 50 49 49 50 50 49 46 43 43 44 44 44 44 43 46 45 44 41 36 32 33
7 10 13 14 14 20 23 27 27 36 41 41 44 44 46 48 49 49 50 51 50 52 52 50 50 50 52 52 51 48 47 49 49 48 47 46 45 46 46 45 43 40 40
13 11 13 17 17 20 25 34 33 34 37 42 44 45 44 46 48 51 52 49 49 51 52 52 52 54 54 54 54 52 51 53 55 55 53 52 49 48 47 47 48 45 42
9 6 7 10 19 18 17 25 31 34 34 34 37 46 45 48 51 50 50 48 49 49 48 51 53 55 56 57 58 56 53 55 59 59 59 58 58 54 50 49 49 50 47
14 13 12 7 12 7 10 15 22 29 28 31 32 33 40 45 48 46 43 45 45 43 44 45 46 49 51 53 54 55 54 60 60 61 57 61 62 60 54 50 51 54 47
16 13 13 15 9 13 19 21 18 26 28 29 32 35 34 38 42 42 42 40 41 41 43 42 44 47 48 49 49 50 53 55 50 49 48 48 51 55 55 54 53 53 50
17 13 12 15 15 12 17 19 22 23 25 26 29 32 30 32 34 33 39 37 37 39 41 42 41 41 41 37 40 43 45 46 50 56 50 42 40 46 46 52 55 53 53
17 12 10 8 10 10 14 18 24 22 19 24 22 27 28 29 30 33 29 33 34 36 38 32 33 33 29 29 29 33 34 35 40 42 48 55 52 39 45 49 52 56 58
21 12 10 8 4 7 9 9 10 11 17 22 21 22 22 23 26 27 28 26 26 30 29 30 29 27 25 24 30 29 33 35 37 36 38 43 53 57 59 50 54 57 62
18 12 10 8 5 4 8 14 13 11 9 14 15 16 17 18 20 19 19 28 20 21 26 28 24 21 23 26 29 29 29 27 36 42 41 44 47 51 55 62 53 56 61
Wind_Direction
190 186 191 191 191 189 196 199 197 197 207 209 205 196 212 213 219 208 217 239 249 243 224 224 295 173 235 207 300 158 92 128 271 103 118 168 159 124 246 167 126 148 50
188 188 191 191 194 191 197 202 200 199 204 211 211 200 207 211 223 211 216 228 243 226 235 219 215 205 255 217 219 194 168 174 170 168 172 161 165 130 141 129 130 67 106
189 189 188 194 193 193 197 203 204 201 206 209 202 204 207 209 220 217 216 229 236 231 222 229 221 221 232 245 211 166 163 159 209 203 84 154 181 172 171 157 156 141 199
191 189 191 196 193 197 201 206 208 206 209 205 203 204 203 209 206 222 218 231 240 227 230 242 226 214 200 242 229 149 170 163 145 210 160 206 141 169 173 175 188 187 220
189 188 190 196 198 196 197 203 211 213 211 211 197 208 210 208 214 217 220 223 236 237 218 232 235 218 199 222 226 212 192 184 175 162 226 214 174 166 143 180 216 213 219
189 190 188 194 199 198 196 198 210 214 213 213 203 203 216 207 211 215 216 219 223 227 223 223 231 235 196 207 238 232 213 177 187 193 212 207 175 193 191 214 215 220 213
186 186 184 189 194 199 196 196 207 215 217 217 214 207 208 217 206 216 213 216 218 229 236 223 223 232 220 205 236 229 225 200 197 191 196 198 228 234 222 253 192 210 210
192 183 185 187 191 197 197 197 207 217 218 215 218 212 212 216 210 208 222 212 215 223 227 236 233 242 233 215 213 232 228 233 213 203 200 190 205 221 229 202 239 211 197
192 183 183 187 190 194 200 199 206 217 219 217 216 218 215 218 218 210 211 220 214 218 226 233 234 236 237 228 217 221 229 232 235 226 212 206 193 216 224 228 225 233 274
184 182 182 187 192 196 199 201 206 216 220 219 218 222 221 222 219 219 213 211 218 214 216 228 230 236 243 224 224 223 221 229 238 236 228 219 210 194 225 224 233 234 238
182 181 182 187 195 195 195 201 204 212 218 220 219 220 224 223 222 221 221 217 212 217 217 229 231 237 242 228 222 224 224 230 233 241 236 234 225 216 212 242 225 232 238
180 182 181 188 191 194 197 201 205 208 219 221 222 223 223 225 224 224 225 224 222 218 220 221 226 236 243 237 228 228 222 223 240 240 240 239 238 232 221 220 242 234 231
199 181 180 185 192 196 198 201 204 209 212 214 221 223 226 227 228 228 226 228 230 230 228 228 229 234 240 242 238 236 235 226 235 246 246 241 244 243 235 230 230 231 231
213 181 180 184 193 197 199 201 206 207 209 215 216 222 225 227 230 232 233 232 232 237 236 236 237 236 242 247 248 244 243 244 234 242 251 251 247 248 245 240 238 231 235
165 177 185 187 191 198 202 203 205 207 208 212 222 228 231 229 228 231 234 238 238 238 241 242 240 240 241 246 247 246 245 247 247 240 240 251 256 256 253 247 242 236 229
127 164 203 205 183 203 199 205 205 207 208 213 219 225 231 233 228 229 232 235 240 243 242 242 243 241 243 247 248 249 246 246 248 250 247 246 253 255 255 252 246 242 238
232 257 231 232 221 217 200 201 206 205 211 216 220 219 224 229 231 232 233 232 236 240 241 242 242 243 244 246 248 247 247 247 247 251 252 248 248 250 253 255 253 247 242
250 258 255 237 244 223 217 206 207 209 212 216 222 222 220 226 230 233 236 235 234 236 240 240 242 243 245 245 246 248 247 247 249 250 252 251 249 246 248 250 247 245 242
271 273 262 255 240 212 214 213 208 214 218 221 222 226 224 225 229 232 237 234 233 235 237 241 243 245 247 247 248 247 245 246 248 249 251 252 252 250 245 244 249 247 246
337 337 297 276 245 232 222 205 208 211 221 227 229 227 228 228 229 231 232 232 236 238 237 241 245 249 252 253 253 250 244 245 248 248 247 249 254 254 250 239 243 249 250
327 316 301 313 295 252 212 226 209 210 231 247 241 237 234 233 231 228 228 229 232 232 235 238 242 249 253 255 255 253 244 248 247 246 243 246 250 250 249 243 242 247 255
324 305 287 282 290 287 256 241 243 231 231 233 240 243 240 237 230 228 226 228 229 233 236 240 244 249 254 255 257 257 251 250 242 243 248 245 249 249 243 241 241 245 245
325 306 281 264 263 261 265 254 245 243 240 237 234 237 239 236 229 227 227 224 230 235 238 239 241 249 251 254 263 264 262 257 249 252 249 250 254 251 252 244 242 238 237
322 332 311 290 269 251 235 244 240 236 225 224 228 233 233 233 231 224 231 230 226 232 236 237 245 248 253 263 272 261 267 268 261 261 256 251 245 253 247 249 240 235 234
332 320 319 312 231 207 209 201 203 214 229 228 227 222 228 226 224 226 216 231 238 230 235 243 247 248 255 260 252 260 263 269 269 271 261 253 249 246 245 246 240 235 230
313 310 290 281 283 275 249 231 215 190 191 205 206 210 213 220 224 227 230 221 229 236 236 239 245 244 251 252 257 260 261 257 265 270 258 255 252 249 250 248 246 238 226